W6BST Weather Reports


time (UTC)temp
F
wind
direction
speed
knots
gust
knots
rain 1hr
in
rain 24hr
in
rain mn
in
humidity
%
barometer
mb
20260506144513 56 360 0.0 0.0 0.00 0.00 0.00 48 1022.5
20260506143015 56 360 0.0 0.0 0.00 0.00 0.00 50 1022.4
20260506141505 55 360 0.0 0.0 0.00 0.00 0.00 53 1022.2
20260506140001 53 360 0.0 0.0 0.00 0.00 0.00 54 1022.0
20260506134558 52 360 0.0 0.0 0.00 0.00 0.00 56 1021.9
20260506133058 51 360 0.0 0.0 0.00 0.00 0.00 58 1021.5
20260506131549 51 360 0.0 0.0 0.00 0.00 0.00 58 1021.3
20260506130046 51 360 0.0 0.0 0.00 0.00 0.00 57 1021.1
20260506124542 51 360 0.0 0.0 0.00 0.00 0.00 57 1020.9
20260506123041 51 360 0.0 0.0 0.00 0.00 0.00 56 1020.6
20260506121539 52 360 0.0 0.0 0.00 0.00 0.00 55 1020.6
20260506120037 53 360 0.0 0.0 0.00 0.00 0.00 55 1020.6
20260506114537 53 360 0.0 0.0 0.00 0.00 0.00 55 1020.5
20260506113035 53 360 0.0 0.0 0.00 0.00 0.00 56 1020.3
20260506111541 54 360 0.0 0.0 0.00 0.00 0.00 54 1020.5
20260506110034 54 360 0.0 0.0 0.00 0.00 0.00 52 1020.3
20260506104536 54 360 0.0 0.0 0.00 0.00 0.00 54 1020.2
20260506103033 53 360 0.0 0.0 0.00 0.00 0.00 55 1020.1
20260506101530 53 360 0.0 0.0 0.00 0.00 0.00 58 1020.0
20260506100029 53 360 0.0 0.0 0.00 0.00 0.00 57 1020.2
20260506094529 53 360 0.0 0.0 0.00 0.00 0.00 57 1020.0
20260506093041 53 360 0.0 0.0 0.00 0.00 0.00 56 1019.9
20260506091525 54 360 0.0 7.8 0.00 0.00 0.00 56 1019.6
20260506090024 53 360 0.0 0.0 0.00 0.00 0.00 56 1019.7
20260506084523 54 360 0.0 0.0 0.00 0.00 0.00 56 1019.8
20260506083021 54 360 0.0 0.0 0.00 0.00 0.00 55 1019.8
20260506081520 54 360 0.0 0.0 0.00 0.00 0.00 55 1019.7
20260506073016 55 360 0.0 0.0 0.00 0.00 0.00 52 1019.5
20260506071514 55 360 0.0 0.0 0.00 0.00 0.00 53 1019.3
20260506061508 55 360 0.0 0.0 0.00 0.00 0.00 54 1018.6
20260506044616 57 360 0.0 0.0 0.00 0.00 0.00 50 1017.8
20260506043059 58 360 0.0 0.0 0.00 0.00 0.00 49 1017.5
20260506041608 58 360 0.0 0.0 0.00 0.00 0.00 47 1017.3
20260506040101 59 360 0.0 0.0 0.00 0.00 0.00 46 1017.1
20260506034556 61 360 0.0 0.0 0.00 0.00 0.00 41 1016.7
20260506033055 61 360 0.0 0.0 0.00 0.00 0.00 40 1016.4
20260506031553 62 360 0.0 0.0 0.00 0.00 0.00 39 1016.2
20260506030051 63 360 0.0 0.0 0.00 0.00 0.00 37 1015.7
20260506024551 64 360 0.0 0.0 0.00 0.00 0.00 33 1015.6
20260506023056 66 360 0.0 0.0 0.00 0.00 0.00 31 1015.4
20260506021551 68 360 0.0 0.0 0.00 0.00 0.00 27 1015.2
20260506020116 71 360 0.0 0.0 0.00 0.00 0.00 26 1015.1
20260506014550 71 360 0.0 0.0 0.00 0.00 0.00 26 1014.9
20260506013048 72 360 0.0 0.0 0.00 0.00 0.00 23 1014.7
20260506011550 72 360 0.0 0.0 0.00 0.00 0.00 22 1014.7
20260506010046 72 360 0.0 0.0 0.00 0.00 0.00 23 1014.8
20260506004546 71 360 0.0 0.9 0.00 0.00 0.00 24 1014.7
20260506003047 72 360 0.0 0.9 0.00 0.00 0.00 23 1014.5
20260506001551 72 360 0.0 0.9 0.00 0.00 0.00 23 1014.5
20260506000056 71 360 0.0 1.7 0.00 0.00 0.00 24 1014.6
20260505234544 70 360 0.0 0.0 0.00 0.00 0.00 26 1014.5
20260505233048 70 360 0.0 3.5 0.00 0.00 0.00 26 1014.5
20260505231551 70 360 0.0 0.9 0.00 0.00 0.00 26 1014.5
20260505230046 70 360 0.0 0.0 0.00 0.00 0.00 24 1014.6
20260505224546 70 360 0.0 0.0 0.00 0.00 0.00 24 1014.6
20260505223040 72 360 0.0 0.0 0.00 0.00 0.00 23 1014.7
20260505221547 72 360 0.0 0.0 0.00 0.00 0.00 23 1014.9
20260505220038 72 360 0.0 0.9 0.00 0.00 0.00 23 1015.1
20260505214544 71 301 0.0 0.0 0.00 0.00 0.00 23 1015.4
20260505213036 72 360 0.0 0.9 0.00 0.00 0.00 23 1015.3
20260505211646 72 296 0.0 0.0 0.00 0.00 0.00 23 1015.6
20260505210041 71 360 0.0 0.9 0.00 0.00 0.00 24 1015.6
20260505204539 71 119 0.0 0.9 0.00 0.00 0.00 24 1015.5
20260505203032 72 140 0.0 0.9 0.00 0.00 0.00 24 1015.7
20260505201536 73 360 0.0 0.9 0.00 0.00 0.00 23 1015.8
20260505200029 71 360 0.0 0.0 0.00 0.00 0.00 25 1016.0
20260505194527 70 134 0.0 0.9 0.00 0.00 0.00 25 1016.2
20260505193027 71 132 0.0 0.0 0.00 0.00 0.00 25 1016.4
20260505191531 68 360 0.0 0.0 0.00 0.00 0.00 28 1016.4
20260505190022 67 360 0.0 0.9 0.00 0.00 0.00 28 1016.4
20260505184523 67 360 0.0 0.9 0.00 0.00 0.00 28 1016.4
20260505183021 69 360 0.0 0.0 0.00 0.00 0.00 26 1016.6
20260505181516 67 360 0.0 0.0 0.00 0.00 0.00 27 1016.6
20260505180014 66 360 0.0 0.9 0.00 0.00 0.00 28 1016.6
20260505174522 66 360 0.0 0.9 0.00 0.00 0.00 27 1016.6
20260505173009 63 360 0.0 0.9 0.00 0.00 0.00 31 1016.5
20260505171507 62 360 0.0 3.5 0.00 0.00 0.00 33 1016.5
20260505170002 63 115 0.0 0.9 0.00 0.00 0.00 32 1016.4
20260505164558 62 114 0.0 0.9 0.00 0.00 0.00 34 1016.3
20260505163054 61 360 0.0 0.9 0.00 0.00 0.00 36 1016.3
20260505161551 60 360 0.0 0.9 0.00 0.00 0.00 37 1016.1
20260505153042 56 313 0.0 0.9 0.00 0.00 0.00 42 1016.2
20260505151531 55 360 0.0 0.9 0.00 0.00 0.00 44 1016.0